Weather in Lesnaya Dacha

Russia / Stavropol Krai     45°48′06″N   42°13′28″E
temp.,
°C
wind,
m/s
gust,
m/s
humid.,
%
clouds,
%
prec.,
mm/h
press.,
hPa
HPBL,
m
7 march, sun
sun700:000nnw71195100 2.5 1018730
03:00−1nw61088100 4.7 1022874
06:00−4wnw388132 0.0 1025281
09:00−2wnw466316 0.0 1026656
12:00+1w34470 0.0 10261223
15:00+2wsw45460 0.0 10231442
18:000sw34610 0.0 102383
21:00−2sw49720 0.0 1022249
8 march, mon
mon800:00−2wsw410720 0.0 1022385
03:00−2wsw49730 0.0 1021368
06:00−2sw510680 0.0 1020341
09:00+1sw68530 0.0 1020836
12:00+4wsw684818 0.0 10181274
15:00+5wsw68479 0.0 10161461
18:00+1sw44680 0.0 101685
21:000ssw487922 0.0 1017210
9 march, tue
tue900:00−1sw51088100 0.0 1016288
03:00−1sw4118654 0.0 1016308
06:000wsw6148270 0.0 1015643
09:00+3wsw10157185 0.0 10161294
12:00+1wnw71097100 1.4 1016496
15:00+3wnw5875100 2.3 10161143
18:00+1wnw4875100 0.1 1017206
21:00−1w4117491 0.1 1020340
10 march, wed
wed1000:00−3w497828 0.0 1021274
03:00−3w368338 0.0 1022187
06:00−3w378212 0.0 1023224
09:00−1nw45587 0.0 10251084
12:00+1nw344578 0.0 10241428
15:00+1n334289 0.0 10231304
18:00−2ne3554100 0.0 1023127
21:00−3ene4855100 0.0 1024362
11 march, thu
thu1100:00−4ene61056100 0.0 1023560
03:00−4ene71055100 0.0 1024764
06:00−5e71150100 0.0 1024784
09:00−5ene81241100 0.0 1025834
12:00−3ene91128100 0.0 10251074
15:00−3ene81127100 0.0 10251098
18:00−5ene71030100 0.0 10261062
21:00−6ene7930100 0.0 10281050